Location: Bazugues
(43.4465°N, 0.3432°E)
Time: 07:55:00
(UTC+00:00)

ARIANE 6 FM1 Upper Stage - Visible Passes

Search period start: 12 March 2026 00:00
Search period end: 22 March 2026 00:00
Orbit: 523 x 607 km, 62.0° (Epoch: 11 March)

Date Brightness Start Highest point End Pass type
(mag) Time Alt. Az. Time Alt. Az. Time Alt. Az.
12 Mar 2.7 04:21:56 53° S 04:22:46 71° SE 04:26:48 10° NE visible
13 Mar 2.4 04:22:08 69° WSW 04:22:32 79° NW 04:26:36 10° NE visible
14 Mar 5.8 02:46:13 11° ENE 02:46:13 11° ENE 02:46:23 10° ENE visible
14 Mar 2.7 04:22:14 53° NW 04:22:20 54° NW 04:26:19 10° NNE visible
15 Mar 5.7 02:46:13 12° ENE 02:46:13 12° ENE 02:46:41 10° ENE visible
15 Mar 3.3 04:22:13 38° NW 04:22:13 38° NW 04:25:58 10° NNE visible
16 Mar 5.7 02:46:08 14° ENE 02:46:08 14° ENE 02:46:45 10° NE visible
16 Mar 3.8 04:22:08 28° NW 04:22:08 28° NW 04:25:35 10° NNE visible
17 Mar 5.6 02:45:59 14° NE 02:45:59 14° NE 02:46:40 10° NE visible
17 Mar 4.2 04:21:59 21° NW 04:21:59 21° NW 04:25:06 10° NNE visible
18 Mar 5.6 02:45:47 15° NE 02:45:47 15° NE 02:46:29 10° NE visible
18 Mar 4.5 04:21:46 17° NW 04:21:53 17° NW 04:24:33 10° N visible
19 Mar 5.5 02:45:31 14° NNE 02:45:31 14° NNE 02:46:12 10° NE visible
19 Mar 4.8 04:21:30 13° NW 04:21:51 13° NNW 04:23:52 10° N visible
20 Mar 5.5 02:45:13 14° NNE 02:45:13 14° NNE 02:45:52 10° NNE visible
20 Mar 5.0 04:21:12 10° NW 04:21:51 11° NNW 04:22:49 10° NNW visible
21 Mar 5.5 02:44:52 13° NNE 02:44:52 13° NNE 02:45:28 10° NNE visible
